Louisville Bowman, KY

5:32 PM EDT on April 28, 2017 (GMT -0400)
Bowman

Weather History for KLOU - October, 2014

Change the Weather History Date:

Wednesday, October 15, 2014

  Actual Average Record
Temperature  
Mean Temperature 56 °F 58 °F  
Max Temperature 58 °F 69 °F 84 °F (2008)
Min Temperature 54 °F 48 °F 32 °F (1961)
Degree Days  
Heating Degree Days 9 7  
Month to date heating degree days 78 87  
Since 1 July heating degree days 110 123  
Cooling Degree Days 0 1  
Month to date cooling degree days 22 22  
Year to date cooling degree days 1534 1435  
Growing Degree Days 6 (Base 50)    
Moisture  
Dew Point 53 °F    
Average Humidity 89    
Maximum Humidity 100    
Minimum Humidity 77    
Precipitation  
Precipitation 0.25 in 0.12 in 0.48 in (1974)
Month to date precipitation 3.55 1.55  
Year to date precipitation 37.15 36.25  
Sea Level Pressure  
Sea Level Pressure 29.76 in    
Wind  
Wind Speed 6 mph (SSW)    
Max Wind Speed 13 mph    
Max Gust Speed 17 mph    
Visibility 7 miles    
Events Rain    
T = Trace of Precipitation, MM = Missing Value Source: NWS Daily Summary

Daily Weather History Graph

Daily Weather History Graph

Search for Another Location

Airport or City:

Trip Planner

Search our weather history database for the weather conditions in past years. The results will help you decide how hot, cold, wet, or windy it might be!

Date:

Astronomy

Oct. 15, 2014 Rise Set
Actual Time 7:51 AM EDT 7:04 PM EDT
Civil Twilight 7:24 AM EDT 7:31 PM EDT
Nautical Twilight 6:54 AM EDT 8:01 PM EDT
Astronomical Twilight 6:23 AM EDT 8:32 PM EDT
Moon 12:13 AM EDT (10/15) 2:30 PM EDT (10/15)
Length of Visible Light 12h 06m
Length of Day
11h 13m
Waning Gibbous, 51% of the Moon is Illuminated
Oct 15
Waning Gibbous
Oct 15
Last Quarter
Oct 23
New
Oct 30
First Quarter
Nov 6
Full

Hourly Weather History & Observations

Time (EDT) Temp. Dew Point Humidity Pressure Visibility Wind Dir Wind Speed Gust Speed Precip Events Conditions
12:53 AM 57.9 °F 51.1 °F 78% 29.74 in 10.0 mi South 8.1 mph - N/A   Mostly Cloudy
1:53 AM 57.9 °F 51.1 °F 78% 29.75 in 10.0 mi South 9.2 mph - 0.00 in   Overcast
2:53 AM 57.0 °F 50.0 °F 77% 29.75 in 10.0 mi South 4.6 mph - N/A   Overcast
3:22 AM 57.0 °F 50.0 °F 77% 29.76 in 10.0 mi South 9.2 mph - N/A   Overcast
3:42 AM 57.0 °F 50.0 °F 77% 29.75 in 10.0 mi South 8.1 mph - N/A   Overcast
3:53 AM 55.9 °F 51.1 °F 84% 29.75 in 7.0 mi South 9.2 mph - 0.00 in Rain Light Rain
4:01 AM 55.9 °F 51.1 °F 84% 29.75 in 9.0 mi South 5.8 mph - 0.00 in Rain Light Rain
4:22 AM 55.9 °F 51.1 °F 84% 29.75 in 10.0 mi South 9.2 mph - 0.00 in   Overcast
4:53 AM 55.9 °F 51.1 °F 84% 29.74 in 10.0 mi South 5.8 mph - 0.00 in   Overcast
5:53 AM 55.9 °F 51.1 °F 84% 29.75 in 10.0 mi South 9.2 mph - N/A   Overcast
6:41 AM 54.0 °F 52.0 °F 93% 29.76 in 8.0 mi South 5.8 mph - N/A   Overcast
6:53 AM 55.0 °F 52.0 °F 89% 29.75 in 10.0 mi South 5.8 mph - N/A   Overcast
7:15 AM 55.0 °F 52.0 °F 89% 29.76 in 10.0 mi South 5.8 mph - N/A   Overcast
7:28 AM 55.0 °F 52.0 °F 89% 29.76 in 10.0 mi South 4.6 mph - N/A   Overcast
7:50 AM 55.4 °F 51.8 °F 88% 29.76 in 10.0 mi SSE 5.8 mph - N/A   Overcast
7:53 AM 55.0 °F 52.0 °F 89% 29.76 in 10.0 mi South 5.8 mph - N/A   Overcast
8:53 AM 55.0 °F 52.0 °F 89% 29.77 in 5.0 mi Variable 6.9 mph - N/A   Overcast
9:12 AM 54.0 °F 52.0 °F 93% 29.77 in 10.0 mi South 5.8 mph - N/A   Overcast
9:24 AM 55.0 °F 52.0 °F 89% 29.77 in 10.0 mi South 4.6 mph - N/A   Overcast
9:35 AM 55.0 °F 52.0 °F 89% 29.77 in 10.0 mi South 5.8 mph - N/A   Overcast
9:53 AM 55.0 °F 52.0 °F 89% 29.76 in 10.0 mi South 5.8 mph - N/A   Overcast
10:53 AM 55.9 °F 52.0 °F 87% 29.76 in 10.0 mi South 5.8 mph - N/A   Overcast
11:22 AM 55.9 °F 51.1 °F 84% 29.77 in 10.0 mi South 9.2 mph - N/A   Overcast
11:53 AM 55.9 °F 51.1 °F 84% 29.77 in 10.0 mi South 8.1 mph - N/A   Overcast
12:53 PM 55.9 °F 53.1 °F 90% 29.77 in 7.0 mi South 5.8 mph - 0.01 in Rain Light Rain
1:11 PM 55.9 °F 53.1 °F 90% 29.77 in 5.0 mi South 4.6 mph - 0.02 in Rain Light Rain
1:22 PM 55.9 °F 54.0 °F 93% 29.76 in 8.0 mi SSW 4.6 mph - 0.02 in Rain Light Rain
1:32 PM 55.9 °F 54.0 °F 93% 29.76 in 7.0 mi South 5.8 mph - 0.03 in Rain Light Rain
1:41 PM 57.0 °F 54.0 °F 89% 29.75 in 10.0 mi SSW 5.8 mph - 0.03 in Rain Light Rain
1:51 PM 57.2 °F 53.6 °F 88% 29.75 in 10.0 mi SSW 8.1 mph - 0.03 in Rain Light Rain
1:53 PM 57.0 °F 54.0 °F 89% 29.74 in 10.0 mi South 8.1 mph - 0.03 in Rain Light Rain
2:16 PM 57.0 °F 53.1 °F 87% 29.74 in 10.0 mi SW 5.8 mph - 0.00 in Rain Light Rain
2:53 PM 57.0 °F 53.1 °F 87% 29.73 in 10.0 mi SSW 4.6 mph - 0.00 in   Overcast
3:02 PM 57.0 °F 53.1 °F 87% 29.74 in 10.0 mi Variable 4.6 mph - N/A   Overcast
3:23 PM 57.0 °F 53.1 °F 87% 29.74 in 8.0 mi SSW 5.8 mph - 0.00 in Rain Light Rain
3:34 PM 57.0 °F 53.1 °F 87% 29.74 in 10.0 mi SSW 5.8 mph - 0.00 in Rain Light Rain
3:53 PM 55.9 °F 54.0 °F 93% 29.74 in 4.0 mi Variable 4.6 mph - 0.00 in Rain Light Rain
4:03 PM 55.9 °F 54.0 °F 93% 29.74 in 3.0 mi SSW 5.8 mph - 0.00 in Rain Light Rain
4:13 PM 55.9 °F 54.0 °F 93% 29.74 in 3.0 mi SSW 4.6 mph - 0.01 in Rain Light Rain
4:21 PM 55.9 °F 54.0 °F 93% 29.75 in 1.8 mi SSW 4.6 mph - 0.02 in Rain Light Rain
4:36 PM 55.9 °F 54.0 °F 93% 29.75 in 3.0 mi SSW 5.8 mph - 0.04 in Rain Light Rain
4:50 PM 55.4 °F 53.6 °F 94% 29.75 in 3.0 mi SSW 5.8 mph - 0.04 in Rain Light Rain
4:53 PM 55.9 °F 54.0 °F 93% 29.75 in 2.5 mi SSW 5.8 mph - 0.05 in Rain Light Rain
5:07 PM 55.9 °F 55.0 °F 97% 29.75 in 1.8 mi South 5.8 mph - 0.01 in Rain Light Rain
5:20 PM 55.9 °F 54.0 °F 93% 29.75 in 2.0 mi SSW 5.8 mph - 0.02 in Rain Light Rain
5:40 PM 55.9 °F 54.0 °F 93% 29.75 in 1.8 mi South 4.6 mph - 0.04 in Rain Rain
5:48 PM 55.4 °F 55.4 °F 100% 29.75 in 2.5 mi South 4.6 mph - 0.05 in Rain Light Rain
5:53 PM 55.9 °F 55.0 °F 97% 29.75 in 2.5 mi South 4.6 mph - 0.06 in Rain Light Rain
6:12 PM 55.9 °F 55.0 °F 97% 29.76 in 1.8 mi South 8.1 mph - 0.02 in Rain Light Rain
6:36 PM 55.9 °F 55.0 °F 97% 29.76 in 2.5 mi South 4.6 mph - 0.04 in Rain Light Rain
6:53 PM 55.9 °F 55.0 °F 97% 29.76 in 3.0 mi South 4.6 mph - 0.05 in Rain Light Rain
7:39 PM 55.9 °F 55.0 °F 97% 29.76 in 9.0 mi SSW 5.8 mph - 0.01 in   Overcast
7:53 PM 55.9 °F 55.0 °F 97% 29.76 in 6.0 mi Variable 4.6 mph - 0.02 in Rain Light Rain
8:06 PM 55.9 °F 55.0 °F 97% 29.76 in 4.0 mi SW 5.8 mph - 0.01 in Rain Light Rain
8:23 PM 55.9 °F 54.0 °F 93% 29.76 in 6.0 mi SW 5.8 mph - 0.01 in   Overcast
8:45 PM 55.9 °F 54.0 °F 93% 29.76 in 9.0 mi SSW 8.1 mph - 0.01 in   Overcast
8:53 PM 55.9 °F 54.0 °F 93% 29.77 in 10.0 mi SW 5.8 mph - 0.01 in   Overcast
9:20 PM 55.9 °F 54.0 °F 93% 29.77 in 4.0 mi WSW 5.8 mph - 0.00 in Rain Light Rain
9:39 PM 55.9 °F 54.0 °F 93% 29.78 in 7.0 mi WSW 6.9 mph - 0.01 in Rain Light Rain
9:51 PM 55.4 °F 53.6 °F 94% 29.78 in 10.0 mi WSW 9.2 mph - 0.01 in Rain Light Rain
9:53 PM 55.9 °F 54.0 °F 93% 29.78 in 9.0 mi West 10.4 mph - 0.01 in Rain Light Rain
10:29 PM 55.9 °F 53.1 °F 90% 29.79 in 10.0 mi West 11.5 mph - 0.01 in   Overcast
10:53 PM 55.0 °F 53.1 °F 93% 29.79 in 6.0 mi West 8.1 mph - 0.01 in   Overcast
11:19 PM 55.0 °F 53.1 °F 93% 29.79 in 8.0 mi West 10.4 mph - N/A   Overcast
11:53 PM 54.0 °F 53.1 °F 97% 29.78 in 9.0 mi West 8.1 mph - N/A   Overcast